Location: Bellerive
(46.9237°N, 7.0223°E)
Time: 09:08:14
(UTC+00:00)

Terra - Pass Details

Date: 09 April 2020
Orbit: 701 x 703 km, 98.2° (Epoch: 02 June)

Event Time Altitude Azimuth Distance (km) Brightness Sun altitude
Exits shadow 20:29:28 28° 67° (ENE) 1,307 2.9 -21.6°
Maximum altitude 20:29:33 28° 65° (ENE) 1,307 3.0 -21.6°
Drops below altitude 10° 20:33:36 10° 7° (N) 2,183 4.8 -22.2°
Sets 20:36:06 0° 356° (N) 3,106 5.8 -22.5°
